Home   Weather   Ottawa   Past weeks

Flag for Canada Past Weather in Ottawa, Ontario, Canada — Yesterday and Last 2 Weeks

Now
25 °F

Passing clouds.


Feels Like: 18 °F
Forecast: 19 / 28 °F
Wind: 6 mph from Southwest

Location: Ottawa Int'L. Ont.

Current Time: Jan 17, 2017 at 12:00:12 am

Latest Report: Jan 16, 2017 at 11:00 pm


Visibility: 15 mi

Pressure: 30.22 "Hg

Humidity: 74%

Dew Point: 18 °F

Location of OttawaLocation

Past Weather in Ottawa — Graph

°F

Ottawa Temperature Yesterday

Maximum temperature yesterday: 37 °F (at 2:00 pm)
Minimum temperature yesterday: 10 °F (at 1:00 am)
Average temperature yesterday: 25 °F

High & Low Weather Summary for the Past Weeks

 TemperatureHumidityPressure
High43 °F (Jan 11, 11:00 pm)100% (Jan 2, 12:00 am)30.84 "Hg (Jan 2, 12:00 am)
Low-11 °F (Jan 9, 4:00 am)48% (Jan 13, 3:00 pm)29.25 "Hg (Jan 4, 2:28 pm)
Average20 °F79%30.11 "Hg
* Reported Jan 1 11:00 pm — Jan 16 11:00 pm, Ottawa, Weather by CustomWeather, © 2017

Note: Actual official high and low records may vary slightly from our data, if they occured in-between our weather recording intervals... More about our weather records

Advertising

Ottawa Weather History for the Previous 24 Hours

Scroll right to see more
 ConditionsComfort  
Time TempWeatherWind HumidityBarometerVisibility
11:00 pm
Mon, Jan 16
25 °FPassing clouds.6 mph74%30.22 "Hg15 mi
10:00 pm27 °FClear.8 mph69%30.23 "Hg15 mi
9:00 pm28 °FClear.7 mph64%30.23 "Hg15 mi
8:00 pm30 °FClear.7 mph64%30.22 "Hg15 mi
7:00 pm30 °FPassing clouds.12 mph64%30.21 "Hg15 mi
6:00 pm32 °FPassing clouds.10 mph64%30.20 "Hg15 mi
5:00 pm34 °FPassing clouds.12 mph56%30.19 "Hg15 mi
4:00 pm36 °FPassing clouds.15 mph52%30.18 "Hg15 mi
3:00 pm37 °FPassing clouds.17 mph48%30.17 "Hg15 mi
2:00 pm37 °FPassing clouds.14 mph52%30.18 "Hg15 mi
1:00 pm36 °FPassing clouds.15 mph56%30.21 "Hg15 mi
12:00 pm34 °FPassing clouds.17 mph65%30.22 "Hg15 mi
11:00 am32 °FPassing clouds.15 mph69%30.25 "Hg15 mi
10:00 am28 °FPassing clouds.14 mph74%30.26 "Hg15 mi
9:00 am23 °FPassing clouds.9 mph86%30.27 "Hg15 mi
8:00 am16 °FPassing clouds.6 mph93%30.27 "Hg15 mi
7:00 am16 °FPassing clouds.5 mph86%30.29 "Hg15 mi
6:00 am12 °FPassing clouds.3 mph92%30.31 "Hg15 mi
5:00 am14 °FPassing clouds.2 mph85%30.31 "Hg15 mi
4:00 am14 °FPassing clouds.6 mph85%30.32 "Hg15 mi
3:00 am14 °FPassing clouds.7 mph85%30.34 "Hg15 mi
2:00 am12 °FPassing clouds.6 mph85%30.37 "Hg15 mi
1:00 am10 °FClear.6 mph85%30.37 "Hg15 mi
12:00 am12 °FClear.5 mph85%30.36 "Hg15 mi
Weather by CustomWeather, © 2017

See weather overviewHow to use our weather pages